Zurück zum Katalog

TLV R/B

AktivVLEO
NORAD 58501·ROCKET BODY·🇰🇷 South Korea

Gestartet Dec 4, 2023 von Jeju Island Sea Launch Area

Loading…

Nächste Überflüge (nächste 24 Stunden)

TLE

AktuellSource: Space-Track

Epoche: Sep 14, 2026, 09:41 UTC

1 58501U 23188B   26257.40357901  .00005727  00000-0  16992-3 0  9993
2 58501  46.9284 234.9555 0106263 124.1073 236.9978 15.30747066154488

Verfolge TLV R/B in Echtzeit mit AllMySat

Download on the App Store